This demonstration page uses our WeatherBlox Daily Observations layout. Learn more.

41.55636, -103.73856

Hourly Observations for May 14, 2017

Temp ( °F °C ) Dew Point ( °F °C ) Humidity (%) Winds ( mph kmh ) Pressure ( in mb ) Visibility ( mi km ) Precip ( " mm )
12:53 am 00:53 Clear 62 16.7 42 5.6 48 48 WNW 17 28 29.58 1002 10 16.0934 0 0
1:53 am 01:53 Clear 60 15.6 46 7.8 60 60 WNW 16 26 29.6 1002 10 16.0934 0 0
2:53 am 02:53 Clear 57 13.9 47 8.3 69 69 WNW 12 19 29.64 1004 10 16.0934 0 0
3:53 am 03:53 Clear 54 12.2 47 8.3 77 77 NW 7 11 29.68 1005 10 16.0934 0 0
4:53 am 04:53 Clear 53 11.7 46 7.8 77 77 W 8 13 29.71 1006 10 16.0934 0 0
5:53 am 05:53 Sunny 51 10.6 46 7.8 83 83 WNW 12 19 29.73 1007 10 16.0934 0 0
6:53 am 06:53 Sunny 54 12.2 46 7.8 75 75 N 9 15 29.79 1009 10 16.0934 0 0
7:53 am 07:53 Sunny 58 14.4 45 7.2 62 62 NNW 15 24 29.81 1009 10 16.0934 0 0
8:53 am 08:53 Sunny 62 16.7 45 7.2 54 54 NW 9 15 29.84 1010 10 16.0934 0 0
9:53 am 09:53 Sunny 65 18.3 45 7.2 49 49 VRB 6 9 29.85 1011 10 16.0934 0 0
10:53 am 10:53 Mostly Sunny 68 20 45 7.2 44 44 VRB 6 9 29.83 1010 10 16.0934 0 0
11:53 am 11:53 Sunny 70 21.1 44 6.7 39 39 Calm 29.81 1009 10 16.0934 0 0
12:53 pm 12:53 Sunny 72 22.2 44 6.7 37 37 NE 8 13 29.8 1009 10 16.0934 0 0
1:53 pm 13:53 Mostly Sunny 74 23.3 45 7.2 36 36 ENE 12 19 29.78 1008 10 16.0934 0 0
2:53 pm 14:53 Sunny 76 24.4 43 6.1 31 31 ESE 13 20 29.76 1008 10 16.0934 0 0
3:53 pm 15:53 Sunny 75 23.9 41 5 29 29 SE 10 17 29.74 1007 10 16.0934 0 0
4:53 pm 16:53 Sunny 76 24.4 41 5 29 29 SE 14 22 29.73 1007 10 16.0934 0 0
5:53 pm 17:53 Sunny 75 23.9 44 6.7 33 33 SE 13 20 29.74 1007 10 16.0934 0 0
6:53 pm 18:53 Partly Cloudy 73 22.8 44 6.7 35 35 ESE 15 24 29.71 1006 10 16.0934 0 0
7:53 pm 19:53 Sunny 69 20.6 46 7.8 44 44 E 17 28 29.69 1006 10 16.0934 0 0
8:53 pm 20:53 Clear 66 18.9 48 8.9 52 52 ESE 12 19 29.7 1006 10 16.0934 0 0
9:53 pm 21:53 Clear 63 17.2 49 9.4 60 60 ESE 10 17 29.71 1006 10 16.0934 0 0
10:53 pm 22:53 Clear 62 16.7 48 8.9 60 60 E 10 17 29.72 1007 10 16.0934 0 0
11:53 pm 23:53 Clear 61 16.1 48 8.9 63 63 E 14 22 29.72 1006 10 16.0934 0 0

Powered by AerisWeather